This demonstration page uses our WeatherBlox Daily Observations layout. Learn more.

Left ArrowRight Arrow

34.74481, -87.66753

Hourly Observations for October 18, 2021

Temp ( °F °C ) Dew Point ( °F °C ) Humidity (%) Winds ( mph kmh ) Pressure ( in mb ) Visibility ( mi km ) Precip ( " mm )
12:53 am 00:53 Clear 48 8.9 43 6.1 83 83 N N/A 30.22 1023 10 16 N/A
1:53 am 01:53 Clear 48 8.9 43 6.1 83 83 N N/A 30.22 1023 10 16 N/A
2:49 am 02:49 Clear with Mist and Fog 46 8 43 6 87 87 N N/A 30.22 1023 2 3 N/A
2:53 am 02:53 Clear 47 8.3 43 6.1 86 86 N N/A 30.20 1023 7 11 N/A
3:07 am 03:07 Hazy 47 8.3 42 5.6 83 83 N N/A 30.22 1023 2 2 N/A
3:16 am 03:16 Clear with Mist and Fog 46 7.8 42 5.6 86 86 N N/A 30.22 1023 1 1 N/A
3:35 am 03:35 Clear with Mist and Fog 46 7.8 43 6.1 89 89 N N/A 30.21 1023 3 4 N/A
3:42 am 03:42 Clear with Mist and Fog 46 7.8 43 6.1 89 89 N N/A 30.21 1023 6 10 N/A
3:53 am 03:53 Clear 46 7.8 43 6.1 89 89 N N/A 30.19 1022 7 11 N/A
4:53 am 04:53 Clear with Mist and Fog 43 6.1 40 4.4 89 89 N N/A 30.19 1023 5 8 N/A
5:12 am 05:12 Partly Cloudy with Mist and Fog 44 6.7 40 4.4 85 85 N N/A 30.21 1023 2 3 N/A
5:15 am 05:15 Mostly Cloudy with Haze 45 7.2 40 4.4 83 83 N N/A 30.22 1023 1 2 N/A
5:23 am 05:23 Mostly Cloudy with Fog 44 6.7 41 5 89 89 N N/A 30.22 1024 1 1 N/A
5:34 am 05:34 Partly Cloudy with Mist and Fog 45 7.2 41 5 86 86 N N/A 30.22 1023 2 2 N/A
5:36 am 05:36 Partly Cloudy with Mist and Fog 45 7.2 41 5 86 86 N N/A 30.22 1023 3 5 N/A
5:53 am 05:53 Mostly Clear with Mist and Fog 44 6.7 40 4.4 85 85 N N/A 30.20 1023 2 3 N/A
5:56 am 05:56 Mostly Cloudy with Mist and Fog 44 6.7 40 4.4 85 85 E 3 6 30.22 1024 1 2 N/A
6:06 am 06:06 Mostly Clear with Mist and Fog 44 6.7 41 5 89 89 E 3 6 30.22 1024 2 3 N/A
6:13 am 06:13 Mostly Clear with Mist and Fog 45 7.2 41 5 86 86 N N/A 30.22 1023 4 6 N/A
6:48 am 06:48 Mostly Clear with Mist and Fog 43 6 39 4 87 87 N N/A 30.24 1024 2 2 N/A
6:53 am 06:53 Mostly Cloudy with Mist and Fog 44 6.7 40 4.4 85 85 N N/A 30.21 1023 1 1 N/A
7:06 am 07:06 Hazy 45 7.2 40 4.4 83 83 N N/A 30.22 1023 2 3 N/A
7:13 am 07:13 Partly Cloudy with Mist and Fog 45 7.2 41 5 86 86 N N/A 30.22 1023 6 10 N/A
7:53 am 07:53 Sunny 47 8.3 43 6.1 86 86 N N/A 30.23 1024 10 16 N/A
8:53 am 08:53 Sunny 54 12.2 47 8.3 77 77 N N/A 30.24 1024 10 16 N/A
9:53 am 09:53 Sunny 60 15.6 49 9.4 67 67 N N/A 30.26 1025 10 16 N/A
10:53 am 10:53 Sunny 66 18.9 46 7.8 49 49 VRB 5 7 30.25 1024 10 16 N/A
11:53 am 11:53 Sunny 70 21.1 42 5.6 37 37 E 8 13 30.23 1024 10 16 N/A
12:53 pm 12:53 Sunny 71 21.7 41 5 34 34 VRB 5 7 30.20 1023 10 16 N/A
1:53 pm 13:53 Sunny 72 22.2 41 5 33 33 E 3 6 30.17 1022 10 16 N/A
2:53 pm 14:53 Sunny 73 22.8 42 5.6 33 33 E 7 11 30.15 1021 10 16 N/A
3:53 pm 15:53 Sunny 73 22.8 40 4.4 30 30 ESE 5 7 30.14 1021 10 16 N/A
4:53 pm 16:53 Sunny 73 22.8 44 6.7 35 35 VRB 5 7 30.14 1021 10 16 N/A
5:53 pm 17:53 Sunny 69 20.6 45 7.2 42 42 ENE 3 6 30.14 1021 10 16 N/A
6:53 pm 18:53 Clear 61 16.1 48 8.9 63 63 N N/A 30.14 1021 10 16 N/A
7:53 pm 19:53 Clear 56 13.3 49 9.4 77 77 N N/A 30.15 1021 10 16 N/A
8:53 pm 20:53 Clear 54 12.2 48 8.9 80 80 N N/A 30.16 1021 10 16 N/A
9:53 pm 21:53 Clear 52 11.1 47 8.3 83 83 N N/A 30.16 1021 10 16 N/A
10:53 pm 22:53 Clear 51 10.6 47 8.3 86 86 N N/A 30.16 1022 10 16 N/A
11:53 pm 23:53 Clear 50 10 47 8.3 89 89 N N/A 30.16 1021 10 16 N/A

Powered by AerisWeather